This demonstration page uses our WeatherBlox Daily Observations layout. Learn more.

Left ArrowRight Arrow

36.19886, -115.1175

Hourly Observations for November 30, 2015

Temp ( °F °C ) Dew Point ( °F °C ) Humidity (%) Winds ( mph kmh ) Pressure ( in mb ) Visibility ( mi km ) Precip ( " mm )
12:53 am 00:53 Clear 34 1.1 13 -10.6 42 42 Calm 30.28 1025 10 16 0.00 0.00
1:53 am 01:53 Clear 34 1.1 16 -8.9 48 48 Calm 30.29 1026 10 16 0.00 0.00
2:53 am 02:53 Clear 33 0.6 17 -8.3 52 52 Calm 30.27 1025 10 16 0.00 0.00
3:53 am 03:53 Clear 33 0.6 13 -10.6 43 43 Calm 30.28 1026 10 16 0.00 0.00
4:53 am 04:53 Clear 32 0 14 -10 47 47 Calm 30.29 1026 10 16 0.00 0.00
5:53 am 05:53 Clear 33 0.6 13 -10.6 43 43 N 3 6 30.31 1027 10 16 0.00 0.00
6:53 am 06:53 Sunny 32 0 14 -10 47 47 WNW 9 15 30.34 1027 10 16 0.00 0.00
7:53 am 07:53 Sunny 37 2.8 14 -10 39 39 NW 8 13 30.34 1027 10 16 0.00 0.00
8:53 am 08:53 Sunny 42 5.6 13 -10.6 30 30 N 3 6 30.33 1027 10 16 0.00 0.00
9:53 am 09:53 Sunny 44 6.7 13 -10.6 28 28 SSE 3 6 30.32 1027 10 16 0.00 0.00
10:53 am 10:53 Sunny 46 7.8 14 -10 27 27 SSE 3 6 30.30 1026 10 16 0.00 0.00
11:53 am 11:53 Sunny 48 8.9 13 -10.6 24 24 SE 3 6 30.26 1025 10 16 0.00 0.00
12:53 pm 12:53 Sunny 49 9.4 13 -10.6 23 23 ENE 5 7 30.22 1023 10 16 0.00 0.00
1:53 pm 13:53 Sunny 49 9.4 12 -11.1 22 22 Calm 30.20 1023 10 16 0.00 0.00
2:53 pm 14:53 Sunny 50 10 12 -11.1 22 22 E 3 6 30.20 1023 10 16 0.00 0.00
3:53 pm 15:53 Sunny 49 9.4 12 -11.1 22 22 ESE 6 9 30.19 1023 10 16 0.00 0.00
4:53 pm 16:53 Clear 48 8.9 12 -11.1 23 23 Calm 30.21 1023 10 16 0.00 0.00
5:53 pm 17:53 Clear 45 7.2 14 -10 29 29 Calm 30.22 1023 10 16 0.00 0.00
6:53 pm 18:53 Clear 43 6.1 15 -9.4 32 32 NW 5 7 30.23 1024 10 16 0.00 0.00
7:53 pm 19:53 Clear 41 5 17 -8.3 38 38 N 3 6 30.24 1024 10 16 0.00 0.00
8:53 pm 20:53 Clear 41 5 17 -8.3 38 38 NNW 6 9 30.23 1024 10 16 0.00 0.00
9:53 pm 21:53 Clear 39 3.9 17 -8.3 41 41 NW 5 7 30.24 1024 10 16 0.00 0.00
10:53 pm 22:53 Clear 37 2.8 17 -8.3 44 44 NW 5 7 30.25 1024 10 16 0.00 0.00
11:53 pm 23:53 Clear 37 2.8 18 -7.8 46 46 Calm 30.25 1024 10 16 0.00 0.00

Powered by AerisWeather